カタログに戻る

DELTA 1 DEB

運用中SSO
NORAD 12255·DEBRIS·🇺🇸 United States

打ち上げ Mar 5, 1978 から Vandenberg Space Force Base

Loading…

次のパス (今後24時間)

TLE

最新Source: Space-Track

元期: Sep 13, 2026, 14:05 UTC

1 12255U 78026CY  26256.58730850 -.00000061  00000-0 -10923-4 0  9993
2 12255  98.9577 198.1815 0019706 135.6599 224.6149 14.02765135699484

AllMySatでDELTA 1 DEBをリアルタイム追跡

Download on the App Store